Location: Newark
(38.1089°N, 103.8675°W)
Time: 07:38:39
(UTC+00:00)

Starlink Launch 2 leader - Visible Passes

Search period start: 08 December 2019 00:00
Search period end: 18 December 2019 00:00
Orbit: 279 x 281 km, 53.0° (Epoch: 13 November)

Date Brightness Start Highest point End Pass type
(mag) Time Alt. Az. Time Alt. Az. Time Alt. Az.
08 Dec 4.2 12:48:45 16° N 12:49:58 23° NE 12:52:02 10° E visible
09 Dec 2.9 12:50:51 25° NNW 12:51:58 49° NE 12:54:21 10° ESE visible
10 Dec 2.2 12:53:01 33° WNW 12:53:53 63° SW 12:56:19 10° SE visible
11 Dec 3.6 12:55:16 23° WSW 12:55:45 25° SW 12:57:50 10° SSE visible
12 Dec 4.7 12:57:37 12° SW 12:57:37 12° SW 12:58:29 10° SSW visible
